Preview of NWS' New Version of Forecast
This preview is not operational and should not be used for support decisions.

Regional Weather Roundup (RWR)

Issued by National Weather Service (NWS)

                            
007 
ASUS43 KMKX 212321
RWRWI 

WISCONSIN REGIONAL WEATHER ROUNDUP
NATIONAL WEATHER SERVICE MILWAUKEE/SULLIVAN WI
600 PM CDT THU JUN 21 2018

NOTE: "FAIR" INDICATES FEW OR NO CLOUDS BELOW 12,000 FEET WITH NO
SIGNIFICANT WEATHER AND/OR OBSTRUCTIONS TO VISIBILITY.

WIZ001-002-006>008-014>016-023>028-220000-
NORTHWEST WISCONSIN
  
CITY           SKY/WX    TMP DP  RH WIND       PRES   REMARKS
SUPERIOR ARPT  FAIR      58  48  71 NE6       29.96F                  
ASHLAND        FAIR      62  50  64 NE7       29.96F                  
HAYWARD        FAIR      74  56  53 N12       29.93S                  
SIREN          FAIR      77  57  49 NE7       29.91F                  
CUMBERLAND     FAIR      75  55  50 NE10      29.90S                  
RICE LAKE      FAIR      78  53  42 N7        29.90F                  
CHETEK         FAIR      78  60  52 NE7       29.88F                  
LADYSMITH      FAIR      78  56  46 NE7       29.90F                  
EAU CLAIRE     FAIR      76  55  48 VRB6      29.86F                  
MENOMONIE      FAIR      75  58  54 E3        29.87F                  
NEW RICHMOND   FAIR      76  56  48 CALM      29.89S                  
OSCEOLA        CLOUDY    76  61  59 NW3       29.91F                  
$$
 
WIZ003>005-009-010-017-018-220000-
NORTH CENTRAL WISCONSIN
  
CITY           SKY/WX    TMP DP  RH WIND       PRES   REMARKS
MANITOWISH WTR PTSUNNY   72  58  62 NE7       29.92F                  
ARBOR VITAE    FAIR      77  62  59 SE6       29.92S                  
WOODRUFF       FAIR      77  62  59 SE6       29.92S                  
RHINELANDER    FAIR      76  60  57 E9        29.93S                  
EAGLE RIVER    FAIR      72  56  57 SE6       29.92F                  
LAND O LAKES   PTSUNNY   74  56  53 NE9       29.94S                  
PHILLIPS       PTSUNNY   73  59  61 E3        29.90F                  
TOMAHAWK       FAIR      76  58  53 NE7       29.91S                  
MEDFORD        FAIR      75  56  52 E8        29.89S                  
MERRILL        FAIR      77  59  53 SE7       29.89F                  
$$
 
WIZ029-030-035-036-043>047-220000-
CENTRAL WISCONSIN
  
CITY           SKY/WX    TMP DP  RH WIND       PRES   REMARKS
WAUSAU         FAIR      77  56  48 E12       29.87S                  
MOSINEE        PTSUNNY   75  57  53 E10       29.89S                  
MARSHFIELD     FAIR      74  61  63 VRB5      29.86F                  
STEVENS POINT  FAIR      74  56  53 E12       29.88S                  
WAUPACA        FAIR      75  56  51 NE8       29.88R                  
WAUTOMA        FAIR      72  63  73 NE13      29.86S                  
WISC RAPIDS    FAIR      75  57  53 E7        29.87S                  
CAMP DOUGLAS   FAIR      68  63  86 CALM      29.85F                  
$$
 
WIZ011>013-019>022-031-037>040-048>050-220000-
NORTHEAST WISCONSIN
  
CITY           SKY/WX    TMP DP  RH WIND       PRES   REMARKS
ANTIGO         FAIR      72  58  59 E7        29.91F                  
SHAWANO        FAIR      73  57  57 E14G20    29.89S                  
OCONTO         FAIR      70  54  57 NE8       29.90S                  
STURGEON BAY   FAIR      68  53  58 NE8       29.91F                  
GREEN BAY      FAIR      69  59  70 NE16      29.88F                  
MANITOWOC      FAIR      64  54  69 N8        29.88S                  
APPLETON       PTSUNNY   72  55  56 NE10      29.86S                  
CLINTONVILLE   NOT AVBL                                               
OSHKOSH        FAIR      72  62  71 NE12G22   29.85S                  
$$
 
WIZ032>034-041-042-053>061-220000-
SOUTHWEST WISCONSIN
  
CITY           SKY/WX    TMP DP  RH WIND       PRES   REMARKS
LA CROSSE      LGT RAIN  66  63  90 E5        29.86F                  
SPARTA         LGT RAIN  63  62  96 CALM      29.87S                  
VIROQUA        CLOUDY    61  60  96 NE6       29.87F                  
BOSCOBEL       LGT RAIN  63  58  83 NE3       29.85R                  
PRAIRIE DU CHI CLOUDY    62  58  87 NE7       29.83S                  
PLATTEVILLE    CLOUDY    65  61  88 NE15      29.82S                  
$$

WIZ056-057-062-063-064-067-068-220000-
SOUTH CENTRAL WISCONSIN
  
CITY           SKY/WX    TMP DP  RH WIND       PRES   REMARKS
REEDSBURG      PTSUNNY   64  64 100 CALM      29.85S                  
BARABOO/DELLS  CLOUDY    64  59  83 S3        29.86S                  
LONE ROCK      LGT RAIN  63  59  87 E6        29.84R                  
MINERAL POINT  PTSUNNY   64  59  82 E9        29.84R                  
MADISON        LGT RAIN  65  60  84 NE8       29.82F                  
MIDDLETON      CLOUDY    64  60  87 NE5       29.84S                  
WATERTOWN      DRIZZLE   65  63  91 NE8       29.83S                  
MONROE         DRIZZLE   61  55  82 NE10      29.82R                  
JANESVILLE     CLOUDY    63  63 100 NE12      29.81R                  
$$
 
WIZ051-052-058>065-066-070>072-220000-
SOUTHEAST WISCONSIN
  
CITY           SKY/WX    TMP DP  RH WIND       PRES   REMARKS
MILWAUKEE      LGT RAIN  58  56  93 NE12      29.84S                  
WAUKESHA       LGT RAIN  63  57  82 E7        29.86R                  
MILWAUKEE/TIMM MOSUNNY   61  54  77 NE8       29.86R                  
RACINE         CLOUDY    60  57  89 NE13      29.84S                  
BURLINGTON     PTSUNNY   57  52  83 NE8       29.82S                  
KENOSHA        PTSUNNY   64  58  80 NE14      29.82R                  
FOND DU LAC    CLOUDY    71  58  63 NE12      29.85F                  
SHEBOYGAN      PTSUNNY   65  55  70 NE15G23   29.86S                  
WEST BEND      CLOUDY    64  59  82 NE14      29.85R                  
JUNEAU         FAIR      67  58  73 NE5       29.85S                  
$$

LSZ147-162-220000-
LAKE SUPERIOR
  
STATION/POSITION TIME  TEMP    WIND        PRES    WAVE
                       AIR SEA DIR/SP/G            HT/PER
                 (UTC) (F)     (DEG/KT/KT) (MB)    (FT/S)
W MID LAKE BUOY  2250   41 38   30/  8/  8 1014.7F   1
DEVILS ISLAND    2300   51      40/  6/  7 1015.0F
SAXON HARBOR     2240   55     350/  4/  6 1014.2F
$$
 
LMZ867-665-643>646-220000-
LAKE MICHIGAN
  
STATION/POSITION TIME  TEMP    WIND        PRES    WAVE
                       AIR SEA DIR/SP/G            HT/PER
                 (UTC) (F)     (DEG/KT/KT) (MB)    (FT/S)
S GREEN BAY BUOY 2300   65 69   60/ 17/ 21 1012.4
N MID LAKE BUOY  2300   50 45   30/  8/ 10 1012.8
NORTHPORT PIER   2240   63      50/  4/  6 1013.2F
KEWAUNEE LAKESHO 2300   60      20/  9/ 15 1011.5
SHEBOYGAN LAKESH 2300   58     360/ 14/ 16 1011.1S
PORT WASHINGTON  2240   64      30/ 11/ 16 1011.5F
ATWATER BUOY     2237   56 57  340/  6/  8 1010.9R   2/ 4
MILWAUKEE LAKESH 2300   58      20/ 14/ 16   N/A
S MID LAKE BUOY  2250   65 62   60/  8/ 10 1008.7F   1/ 3
KENOSHA   LAKESH 2300   60      30/ 16/ 18 1009.5
$$

TC  - TEMPERATURE IN CELSIUS
VSB - VISIBILITY IN STATUTE MILES
WCI - WIND CHILL INDEX
HX  - HEAT INDEX